Location: Praha
(50.0830°N, 14.4670°E)
Time: 00:21:06
(UTC+02:00)

ISS - Pass Details

Date: 20 September 2023
Orbit: 414 x 421 km, 51.6° (Epoch: 25 September)

Event Time Altitude Azimuth Distance (km) Brightness Sun altitude
Rises 20:00:00 0° 253° (WSW) 2,346 1.2 -9.5°
Reaches altitude 10° 20:02:05 10° 253° (WSW) 1,486 0.0 -9.8°
Maximum altitude 20:05:25 90° 203° (SSW) 420 -3.8 -10.3°
Enters shadow 20:08:17 14° 74° (ENE) 1,291 -1.8 -10.8°
